Jaipur, India

5:49 AM IST on September 01, 2016 (GMT +0530)
Jaipur

Weather History for VIJP - September, 2013

Change the Weather History Date:

Friday, September 20, 2013

  Actual Average Record
Temperature  
Mean Temperature 86 °F -  
Max Temperature 95 °F - - ()
Min Temperature 76 °F - - ()
Cooling Degree Days 20    
Growing Degree Days 36 (Base 50)    
Moisture  
Dew Point 70 °F    
Average Humidity 65    
Maximum Humidity 94    
Minimum Humidity 47    
Precipitation  
Precipitation 0.00 in - - ()
Sea Level Pressure  
Sea Level Pressure 29.64 in    
Wind  
Wind Speed 5 mph ()    
Max Wind Speed 13 mph    
Max Gust Speed -    
Visibility 2.3 miles    
Events      
T = Trace of Precipitation, MM = Missing Value Source: Averaged Metar Reports

Daily Weather History Graph

Daily Weather History Graph

Search for Another Location

Airport or City:

Trip Planner

Search our weather history database for the weather conditions in past years. The results will help you decide how hot, cold, wet, or windy it might be!

Date:

Astronomy

Sep. 20, 2013 Rise Set
Actual Time 6:14 AM IST 6:25 PM IST
Civil Twilight 5:51 AM IST 6:48 PM IST
Nautical Twilight 5:24 AM IST 7:15 PM IST
Astronomical Twilight 4:56 AM IST 7:43 PM IST
Moon 6:53 PM IST (9/20) 6:50 AM IST (9/20)
Length of Visible Light 12h 57m
Length of Day
12h 11m
Full, 99% of the Moon is Illuminated
Sep 20
Full
Sep 27
Last Quarter
Oct 5
New
Oct 12
First Quarter
Oct 19
Full

Hourly Weather History & Observations

Time (IST) Temp. Heat Index Dew Point Humidity Pressure Visibility Wind Dir Wind Speed Gust Speed Precip Events Conditions
12:00 AM 84.2 °F 85.0 °F 62.6 °F 48% 29.68 in 1.9 mi ENE 6.9 mph - N/A   Haze
1:00 AM 82.4 °F 83.9 °F 64.4 °F 54% 29.65 in 1.9 mi ENE 5.8 mph - N/A   Haze
2:00 AM 82.4 °F 83.9 °F 64.4 °F 54% 29.65 in 1.9 mi ENE 4.6 mph - N/A   Haze
2:30 AM 80 °F - 64 °F 48% 29.57 in 1 mi Calm Calm - -   Haze
3:00 AM 80.6 °F 81.8 °F 62.6 °F 54% 29.62 in 1.9 mi NNE 3.5 mph - N/A   Haze
4:00 AM 78.8 °F - 64.4 °F 61% 29.62 in 1.9 mi Calm Calm - N/A   Haze
5:00 AM 78.8 °F - 64.4 °F 61% 29.65 in 1.9 mi NE 4.6 mph - N/A   Haze
5:30 AM 77 °F - 64 °F 57% 29.60 in 1 mi Calm Calm - -   Haze
6:00 AM 78.8 °F - 64.4 °F 61% 29.68 in 1.9 mi ENE 4.6 mph - N/A   Haze
7:00 AM 77.0 °F - 64.4 °F 65% 29.68 in 1.9 mi Variable 1.2 mph - N/A   Haze
8:00 AM 84.2 °F 87.3 °F 68.0 °F 58% 29.68 in 2.5 mi ENE 6.9 mph - N/A   Haze
8:30 AM 84 °F - 70 °F 53% 29.61 in 2 mi ENE 9.2 mph - -   Haze
10:00 AM 87.8 °F 92.6 °F 69.8 °F 55% 29.71 in 3.1 mi East 9.2 mph - N/A   Haze
11:00 AM 89.6 °F 96.2 °F 71.6 °F 55% 29.68 in 3.1 mi East 9.2 mph - N/A   Haze
11:30 AM 91 °F - 73 °F 47% 29.59 in 2 mi ESE 9.2 mph - -   Haze
12:00 PM 91.4 °F 98.4 °F 71.6 °F 52% 29.68 in 3.1 mi East 8.1 mph - N/A   Haze
1:00 PM 91.4 °F 98.4 °F 71.6 °F 52% 29.65 in 3.1 mi East 9.2 mph - N/A   Haze
2:00 PM 89.6 °F 98.2 °F 73.4 °F 59% 29.62 in 3.1 mi East 12.7 mph - N/A   Haze
2:30 PM 86 °F - 78 °F 70% 29.56 in 2 mi East 11.5 mph - -   Haze
3:00 PM 86.0 °F 95.1 °F 75.2 °F 70% 29.62 in 3.1 mi East 8.1 mph - N/A   Haze
4:00 PM 89.6 °F 98.2 °F 73.4 °F 59% 29.62 in 3.1 mi ENE 10.4 mph - N/A   Haze
5:30 PM 83 °F - 70 °F 56% 29.55 in 2 mi NNE 9.2 mph - -   Haze
6:00 PM 84.2 °F 90.9 °F 73.4 °F 70% 29.62 in 2.5 mi ENE 10.4 mph - N/A   Haze
7:00 PM 80.6 °F 84.6 °F 71.6 °F 74% 29.65 in 2.5 mi East 9.2 mph - N/A   Haze
8:00 PM 78.8 °F - 73.4 °F 83% 29.68 in 2.5 mi ESE 8.1 mph - N/A   Haze
8:30 PM 78 °F - 74 °F 83% 29.62 in 2 mi ESE 9.2 mph - -   Haze
9:00 PM 78.8 °F - 75.2 °F 89% 29.68 in 2.5 mi ESE 6.9 mph - N/A   Haze
9:30 PM 77.0 °F - 75.2 °F 94% 29.68 in 2.5 mi East 5.8 mph - N/A   Haze
10:00 PM 78.8 °F - 75.2 °F 89% 29.68 in 2.5 mi East 4.6 mph - N/A   Haze
11:00 PM 78.8 °F - 75.2 °F 89% 29.68 in 2.5 mi East 4.6 mph - N/A   Haze
11:30 PM 79 °F - 74 °F 80% 29.62 in 1 mi ENE 5.8 mph - -   Haze